Year,Month,Day,Hour,Minute,Value (Times are PST for temperature in C)
2010,06,03,00,00,8.80
2010,06,03,00,01,8.70
2010,06,03,00,02,8.70
2010,06,03,00,03,8.60
2010,06,03,00,04,8.50
2010,06,03,00,05,8.50
2010,06,03,00,06,8.40
2010,06,03,00,07,8.30
2010,06,03,00,08,8.30
2010,06,03,00,09,8.20
2010,06,03,00,10,8.20
2010,06,03,00,11,8.10
2010,06,03,00,12,8.10
2010,06,03,00,13,8.00
2010,06,03,00,14,7.90
2010,06,03,00,15,7.90
2010,06,03,00,16,7.80
2010,06,03,00,17,7.80
2010,06,03,00,18,7.70
2010,06,03,00,19,7.70
2010,06,03,00,20,7.60
2010,06,03,00,21,7.50
2010,06,03,00,22,7.40
2010,06,03,00,23,7.40
2010,06,03,00,24,7.30
2010,06,03,00,25,7.30
2010,06,03,00,26,7.30
2010,06,03,00,27,7.20
2010,06,03,00,28,7.20
2010,06,03,00,29,7.20
2010,06,03,00,30,7.10
2010,06,03,00,31,7.10
2010,06,03,00,32,7.10
2010,06,03,00,33,7.10
2010,06,03,00,34,7.10
2010,06,03,00,35,7.20
2010,06,03,00,36,7.20
2010,06,03,00,37,7.20
2010,06,03,00,38,7.20
2010,06,03,00,39,7.20
2010,06,03,00,40,7.20
2010,06,03,00,41,7.20
2010,06,03,00,42,7.20
2010,06,03,00,43,7.20
2010,06,03,00,44,7.30
2010,06,03,00,45,7.30
2010,06,03,00,46,7.30
2010,06,03,00,47,7.30
2010,06,03,00,48,7.30
2010,06,03,00,49,7.40
2010,06,03,00,50,7.40
2010,06,03,00,51,7.40
2010,06,03,00,52,7.40
2010,06,03,00,53,7.40
2010,06,03,00,54,7.50
2010,06,03,00,55,7.60
2010,06,03,00,56,7.60
2010,06,03,00,57,7.60
2010,06,03,00,58,7.60
2010,06,03,00,59,7.50
2010,06,03,01,00,7.50
2010,06,03,01,01,7.40
2010,06,03,01,02,7.40
2010,06,03,01,03,7.40
2010,06,03,01,04,7.30
2010,06,03,01,05,7.30
2010,06,03,01,06,7.30
2010,06,03,01,07,7.30
2010,06,03,01,08,7.30
2010,06,03,01,09,7.30
2010,06,03,01,10,7.30
2010,06,03,01,11,7.30
2010,06,03,01,12,7.30
2010,06,03,01,13,7.20
2010,06,03,01,14,7.20
2010,06,03,01,15,7.20
2010,06,03,01,16,7.20
2010,06,03,01,17,7.20
2010,06,03,01,18,7.20
2010,06,03,01,19,7.20
2010,06,03,01,20,7.20
2010,06,03,01,21,7.20
2010,06,03,01,22,7.20
2010,06,03,01,23,7.20
2010,06,03,01,24,7.20
2010,06,03,01,25,7.10
2010,06,03,01,26,7.10
2010,06,03,01,27,7.10
2010,06,03,01,28,7.20
2010,06,03,01,29,7.20
2010,06,03,01,30,7.20
2010,06,03,01,31,7.20
2010,06,03,01,32,7.20
2010,06,03,01,33,7.30
2010,06,03,01,34,7.30
2010,06,03,01,35,7.30
2010,06,03,01,36,7.30
2010,06,03,01,37,7.20
2010,06,03,01,38,7.20
2010,06,03,01,39,7.20
2010,06,03,01,40,7.20
2010,06,03,01,41,7.20
2010,06,03,01,42,7.20
2010,06,03,01,43,7.20
2010,06,03,01,44,7.20
2010,06,03,01,45,7.20
2010,06,03,01,46,7.30
2010,06,03,01,47,7.30
2010,06,03,01,48,7.30
2010,06,03,01,49,7.30
2010,06,03,01,50,7.40
2010,06,03,01,51,7.40
2010,06,03,01,52,7.40
2010,06,03,01,53,7.40
2010,06,03,01,54,7.40
2010,06,03,01,55,7.40
2010,06,03,01,56,7.40
2010,06,03,01,57,7.40
2010,06,03,01,58,7.40
2010,06,03,01,59,7.40
2010,06,03,02,00,7.40
2010,06,03,02,01,7.40
2010,06,03,02,02,7.40
2010,06,03,02,03,7.40
2010,06,03,02,04,7.40
2010,06,03,02,05,7.40
2010,06,03,02,06,7.40
2010,06,03,02,07,7.40
2010,06,03,02,08,7.40
2010,06,03,02,09,7.40
2010,06,03,02,10,7.40
2010,06,03,02,11,7.40
2010,06,03,02,12,7.40
2010,06,03,02,13,7.40
2010,06,03,02,14,7.40
2010,06,03,02,15,7.40
2010,06,03,02,16,7.40
2010,06,03,02,17,7.40
2010,06,03,02,18,7.40
2010,06,03,02,19,7.40
2010,06,03,02,20,7.40
2010,06,03,02,21,7.40
2010,06,03,02,22,7.30
2010,06,03,02,23,7.30
2010,06,03,02,24,7.30
2010,06,03,02,25,7.30
2010,06,03,02,26,7.20
2010,06,03,02,27,7.20
2010,06,03,02,28,7.20
2010,06,03,02,29,7.20
2010,06,03,02,30,7.20
2010,06,03,02,31,7.20
2010,06,03,02,32,7.20
2010,06,03,02,33,7.20
2010,06,03,02,34,7.20
2010,06,03,02,35,7.20
2010,06,03,02,36,7.20
2010,06,03,02,37,7.20
2010,06,03,02,38,7.20
2010,06,03,02,39,7.20
2010,06,03,02,40,7.20
2010,06,03,02,41,7.20
2010,06,03,02,42,7.20
2010,06,03,02,43,7.20
2010,06,03,02,44,7.20
2010,06,03,02,45,7.20
2010,06,03,02,46,7.20
2010,06,03,02,47,7.20
2010,06,03,02,48,7.20
2010,06,03,02,49,7.20
2010,06,03,02,50,7.20
2010,06,03,02,51,7.20
2010,06,03,02,52,7.20
2010,06,03,02,53,7.30
2010,06,03,02,54,7.30
2010,06,03,02,55,7.30
2010,06,03,02,56,7.30
2010,06,03,02,57,7.30
2010,06,03,02,58,7.40
2010,06,03,02,59,7.40
2010,06,03,03,00,7.40
2010,06,03,03,01,7.40
2010,06,03,03,02,7.40
2010,06,03,03,03,7.40
2010,06,03,03,04,7.40
2010,06,03,03,05,7.40
2010,06,03,03,06,7.40
2010,06,03,03,07,7.50
2010,06,03,03,08,7.50
2010,06,03,03,09,7.50
2010,06,03,03,10,7.50
2010,06,03,03,11,7.50
2010,06,03,03,12,7.50
2010,06,03,03,13,7.50
2010,06,03,03,14,7.50
2010,06,03,03,15,7.50
2010,06,03,03,16,7.50
2010,06,03,03,17,7.50
2010,06,03,03,18,7.50
2010,06,03,03,19,7.50
2010,06,03,03,20,7.60
2010,06,03,03,21,7.60
2010,06,03,03,22,7.60
2010,06,03,03,23,7.60
2010,06,03,03,24,7.70
2010,06,03,03,25,7.70
2010,06,03,03,26,7.80
2010,06,03,03,27,7.80
2010,06,03,03,28,7.80
2010,06,03,03,29,7.90
2010,06,03,03,30,7.90
2010,06,03,03,31,7.90
2010,06,03,03,32,7.90
2010,06,03,03,33,8.00
2010,06,03,03,34,8.00
2010,06,03,03,35,8.00
2010,06,03,03,36,8.00
2010,06,03,03,37,8.10
2010,06,03,03,38,8.10
2010,06,03,03,39,8.10
2010,06,03,03,40,8.10
2010,06,03,03,41,8.10
2010,06,03,03,42,8.10
2010,06,03,03,43,8.10
2010,06,03,03,44,8.10
2010,06,03,03,45,8.10
2010,06,03,03,46,8.10
2010,06,03,03,47,8.10
2010,06,03,03,48,8.10
2010,06,03,03,49,8.10
2010,06,03,03,50,8.20
2010,06,03,03,51,8.20
2010,06,03,03,52,8.20
2010,06,03,03,53,8.20
2010,06,03,03,54,8.20
2010,06,03,03,55,8.30
2010,06,03,03,56,8.30
2010,06,03,03,57,8.30
2010,06,03,03,58,8.30
2010,06,03,03,59,8.30
2010,06,03,04,00,8.20
2010,06,03,04,01,8.20
2010,06,03,04,02,8.20
2010,06,03,04,03,8.20
2010,06,03,04,04,8.10
2010,06,03,04,05,8.10
2010,06,03,04,06,8.00
2010,06,03,04,07,8.00
2010,06,03,04,08,7.90
2010,06,03,04,09,7.90
2010,06,03,04,10,7.80
2010,06,03,04,11,7.80
2010,06,03,04,12,7.80
2010,06,03,04,13,7.70
2010,06,03,04,14,7.70
2010,06,03,04,15,7.60
2010,06,03,04,16,7.60
2010,06,03,04,17,7.60
2010,06,03,04,18,7.60
2010,06,03,04,19,7.60
2010,06,03,04,20,7.60
2010,06,03,04,21,7.60
2010,06,03,04,22,7.60
2010,06,03,04,23,7.60
2010,06,03,04,24,7.60
2010,06,03,04,25,7.60
2010,06,03,04,26,7.60
2010,06,03,04,27,7.50
2010,06,03,04,28,7.50
2010,06,03,04,29,7.40
2010,06,03,04,30,7.30
2010,06,03,04,31,7.30
2010,06,03,04,32,7.20
2010,06,03,04,33,7.20
2010,06,03,04,34,7.20
2010,06,03,04,35,7.20
2010,06,03,04,36,7.10
2010,06,03,04,37,7.10
2010,06,03,04,38,7.10
2010,06,03,04,39,7.00
2010,06,03,04,40,7.00
2010,06,03,04,41,7.00
2010,06,03,04,42,7.00
2010,06,03,04,43,6.90
2010,06,03,04,44,6.90
2010,06,03,04,45,6.90
2010,06,03,04,46,6.90
2010,06,03,04,47,6.90
2010,06,03,04,48,6.90
2010,06,03,04,49,6.90
2010,06,03,04,50,6.80
2010,06,03,04,51,6.80
2010,06,03,04,52,6.80
2010,06,03,04,53,6.80
2010,06,03,04,54,6.80
2010,06,03,04,55,6.80
2010,06,03,04,56,6.70
2010,06,03,04,57,6.70
2010,06,03,04,58,6.70
2010,06,03,04,59,6.60
2010,06,03,05,00,6.60
2010,06,03,05,01,6.60
2010,06,03,05,02,6.60
2010,06,03,05,03,6.50
2010,06,03,05,04,6.50
2010,06,03,05,05,6.50
2010,06,03,05,06,6.50
2010,06,03,05,07,6.50
2010,06,03,05,08,6.50
2010,06,03,05,09,6.50
2010,06,03,05,10,6.50
2010,06,03,05,11,6.50
2010,06,03,05,12,6.50
2010,06,03,05,13,6.50
2010,06,03,05,14,6.50
2010,06,03,05,15,6.50
2010,06,03,05,16,6.50
2010,06,03,05,17,6.50
2010,06,03,05,18,6.50
2010,06,03,05,19,6.50
2010,06,03,05,20,6.60
2010,06,03,05,21,6.60
2010,06,03,05,22,6.70
2010,06,03,05,23,6.70
2010,06,03,05,24,6.80
2010,06,03,05,25,6.80
2010,06,03,05,26,6.80
2010,06,03,05,27,6.90
2010,06,03,05,28,6.90
2010,06,03,05,29,6.90
2010,06,03,05,30,6.90
2010,06,03,05,31,6.90
2010,06,03,05,32,6.90
2010,06,03,05,33,6.90
2010,06,03,05,34,6.90
2010,06,03,05,35,6.90
2010,06,03,05,36,6.90
2010,06,03,05,37,6.90
2010,06,03,05,38,6.90
2010,06,03,05,39,6.90
2010,06,03,05,40,6.90
2010,06,03,05,41,7.00
2010,06,03,05,42,7.00
2010,06,03,05,43,7.10
2010,06,03,05,44,7.10
2010,06,03,05,45,7.10
2010,06,03,05,46,7.10
2010,06,03,05,47,7.10
2010,06,03,05,48,7.20
2010,06,03,05,49,7.20
2010,06,03,05,50,7.20
2010,06,03,05,51,7.20
2010,06,03,05,52,7.20
2010,06,03,05,53,7.20
2010,06,03,05,54,7.20
2010,06,03,05,55,7.20
2010,06,03,05,56,7.30
2010,06,03,05,57,7.30
2010,06,03,05,58,7.30
2010,06,03,05,59,7.40
2010,06,03,06,00,7.40
2010,06,03,06,01,7.40
2010,06,03,06,02,7.50
2010,06,03,06,03,7.50
2010,06,03,06,04,7.50
2010,06,03,06,05,7.60
2010,06,03,06,06,7.60
2010,06,03,06,07,7.60
2010,06,03,06,08,7.60
2010,06,03,06,09,7.60
2010,06,03,06,10,7.60
2010,06,03,06,11,7.70
2010,06,03,06,12,7.70
2010,06,03,06,13,7.70
2010,06,03,06,14,7.70
2010,06,03,06,15,7.80
2010,06,03,06,16,7.80
2010,06,03,06,17,7.80
2010,06,03,06,18,7.90
2010,06,03,06,19,7.90
2010,06,03,06,20,7.90
2010,06,03,06,21,8.00
2010,06,03,06,22,8.00
2010,06,03,06,23,8.10
2010,06,03,06,24,8.20
2010,06,03,06,25,8.20
2010,06,03,06,26,8.40
2010,06,03,06,27,8.60
2010,06,03,06,28,8.70
2010,06,03,06,29,8.90
2010,06,03,06,30,9.10
2010,06,03,06,31,9.20
2010,06,03,06,32,9.30
2010,06,03,06,33,9.30
2010,06,03,06,34,9.30
2010,06,03,06,35,9.30
2010,06,03,06,36,9.30
2010,06,03,06,37,9.30
2010,06,03,06,38,9.30
2010,06,03,06,39,9.30
2010,06,03,06,40,9.30
2010,06,03,06,41,9.30
2010,06,03,06,42,9.20
2010,06,03,06,43,9.20
2010,06,03,06,44,9.20
2010,06,03,06,45,9.20
2010,06,03,06,46,9.10
2010,06,03,06,47,9.10
2010,06,03,06,48,9.00
2010,06,03,06,49,9.00
2010,06,03,06,50,9.00
2010,06,03,06,51,8.90
2010,06,03,06,52,8.90
2010,06,03,06,53,8.90
2010,06,03,06,54,9.00
2010,06,03,06,55,9.00
2010,06,03,06,56,9.00
2010,06,03,06,57,9.00
2010,06,03,06,58,9.10
2010,06,03,06,59,9.10
2010,06,03,07,00,9.10
2010,06,03,07,01,9.10
2010,06,03,07,02,9.10
2010,06,03,07,03,9.20
2010,06,03,07,04,9.20
2010,06,03,07,05,9.20
2010,06,03,07,06,9.20
2010,06,03,07,07,9.20
2010,06,03,07,08,9.30
2010,06,03,07,09,9.30
2010,06,03,07,10,9.30
2010,06,03,07,11,9.40
2010,06,03,07,12,9.40
2010,06,03,07,13,9.50
2010,06,03,07,14,9.60
2010,06,03,07,15,9.60
2010,06,03,07,16,9.60
2010,06,03,07,17,9.70
2010,06,03,07,18,9.70
2010,06,03,07,19,9.70
2010,06,03,07,20,9.80
2010,06,03,07,21,9.80
2010,06,03,07,22,9.80
2010,06,03,07,23,9.80
2010,06,03,07,24,9.90
2010,06,03,07,25,9.90
2010,06,03,07,26,9.90
2010,06,03,07,27,10.00
2010,06,03,07,28,10.00
2010,06,03,07,29,10.10
2010,06,03,07,30,10.10
2010,06,03,07,31,10.10
2010,06,03,07,32,10.20
2010,06,03,07,33,10.20
2010,06,03,07,34,10.30
2010,06,03,07,35,10.30
2010,06,03,07,36,10.30
2010,06,03,07,37,10.30
2010,06,03,07,38,10.40
2010,06,03,07,39,10.40
2010,06,03,07,40,10.40
2010,06,03,07,41,10.40
2010,06,03,07,42,10.40
2010,06,03,07,43,10.40
2010,06,03,07,44,10.40
2010,06,03,07,45,10.40
2010,06,03,07,46,10.40
2010,06,03,07,47,10.40
2010,06,03,07,48,10.40
2010,06,03,07,49,10.40
2010,06,03,07,50,10.50
2010,06,03,07,51,10.50
2010,06,03,07,52,10.60
2010,06,03,07,53,10.60
2010,06,03,07,54,10.60
2010,06,03,07,55,10.70
2010,06,03,07,56,10.70
2010,06,03,07,57,10.70
2010,06,03,07,58,10.70
2010,06,03,07,59,10.70
2010,06,03,08,00,10.70
2010,06,03,08,01,10.80
2010,06,03,08,02,10.80
2010,06,03,08,03,10.90
2010,06,03,08,04,10.90
2010,06,03,08,05,11.00
2010,06,03,08,06,11.10
2010,06,03,08,07,11.20
2010,06,03,08,08,11.30
2010,06,03,08,09,11.40
2010,06,03,08,10,11.50
2010,06,03,08,11,11.60
2010,06,03,08,12,11.60
2010,06,03,08,13,11.70
2010,06,03,08,14,11.70
2010,06,03,08,15,11.70
2010,06,03,08,16,11.80
2010,06,03,08,17,11.80
2010,06,03,08,18,11.80
2010,06,03,08,19,11.90
2010,06,03,08,20,11.90
2010,06,03,08,21,11.90
2010,06,03,08,22,11.90
2010,06,03,08,23,11.90
2010,06,03,08,24,11.90
2010,06,03,08,25,11.90
2010,06,03,08,26,12.00
2010,06,03,08,27,12.00
2010,06,03,08,28,12.10
2010,06,03,08,29,12.00
2010,06,03,08,30,12.00
2010,06,03,08,31,11.90
2010,06,03,08,32,11.90
2010,06,03,08,33,11.80
2010,06,03,08,34,11.80
2010,06,03,08,35,11.80
2010,06,03,08,36,11.80
2010,06,03,08,37,11.80
2010,06,03,08,38,11.80
2010,06,03,08,39,11.90
2010,06,03,08,40,11.90
2010,06,03,08,41,12.00
2010,06,03,08,42,12.00
2010,06,03,08,43,12.10
2010,06,03,08,44,12.10
2010,06,03,08,45,12.20
2010,06,03,08,46,12.20
2010,06,03,08,47,12.20
2010,06,03,08,48,12.20
2010,06,03,08,49,12.20
2010,06,03,08,50,12.10
2010,06,03,08,51,11.90
2010,06,03,08,52,11.90
2010,06,03,08,53,11.70
2010,06,03,08,54,11.60
2010,06,03,08,55,11.60
2010,06,03,08,56,11.50
2010,06,03,08,57,11.50
2010,06,03,08,58,11.40
2010,06,03,08,59,11.30
2010,06,03,09,00,11.30
2010,06,03,09,01,11.30
2010,06,03,09,02,11.30
2010,06,03,09,03,11.30
2010,06,03,09,04,11.30
2010,06,03,09,05,11.30
2010,06,03,09,06,11.30
2010,06,03,09,07,11.30
2010,06,03,09,08,11.30
2010,06,03,09,09,11.30
2010,06,03,09,10,11.40
2010,06,03,09,11,11.40
2010,06,03,09,12,11.40
2010,06,03,09,13,11.50
2010,06,03,09,14,11.60
2010,06,03,09,15,11.60
2010,06,03,09,16,11.70
2010,06,03,09,17,11.80
2010,06,03,09,18,11.90
2010,06,03,09,19,11.90
2010,06,03,09,20,12.00
2010,06,03,09,21,12.00
2010,06,03,09,22,11.90
2010,06,03,09,23,11.90
2010,06,03,09,24,11.80
2010,06,03,09,25,11.80
2010,06,03,09,26,11.80
2010,06,03,09,27,11.80
2010,06,03,09,28,11.90
2010,06,03,09,29,11.80
2010,06,03,09,30,11.80
2010,06,03,09,31,11.70
2010,06,03,09,32,11.60
2010,06,03,09,33,11.60
2010,06,03,09,34,11.50
2010,06,03,09,35,11.50
2010,06,03,09,36,11.40
2010,06,03,09,37,11.50
2010,06,03,09,38,11.50
2010,06,03,09,39,11.60
2010,06,03,09,40,11.60
2010,06,03,09,41,11.60
2010,06,03,09,42,11.60
2010,06,03,09,43,11.60
2010,06,03,09,44,11.60
2010,06,03,09,45,11.60
2010,06,03,09,46,11.60
2010,06,03,09,47,11.70
2010,06,03,09,48,11.70
2010,06,03,09,49,11.80
2010,06,03,09,50,11.80
2010,06,03,09,51,11.80
2010,06,03,09,52,11.80
2010,06,03,09,53,11.80
2010,06,03,09,54,11.80
2010,06,03,09,55,11.80
2010,06,03,09,56,11.90
2010,06,03,09,57,12.00
2010,06,03,09,58,12.00
2010,06,03,09,59,12.10
2010,06,03,10,00,12.10
2010,06,03,10,01,12.00
2010,06,03,10,02,12.10
2010,06,03,10,03,12.10
2010,06,03,10,04,12.10
2010,06,03,10,05,12.20
2010,06,03,10,06,12.20
2010,06,03,10,07,12.30
2010,06,03,10,08,12.40
2010,06,03,10,09,12.50
2010,06,03,10,10,12.50
2010,06,03,10,11,12.60
2010,06,03,10,12,12.70
2010,06,03,10,13,12.80
2010,06,03,10,14,13.00
2010,06,03,10,15,13.20
2010,06,03,10,16,13.20
2010,06,03,10,17,13.20
2010,06,03,10,18,13.20
2010,06,03,10,19,13.30
2010,06,03,10,20,13.30
2010,06,03,10,21,13.20
2010,06,03,10,22,13.10
2010,06,03,10,23,13.00
2010,06,03,10,24,12.90
2010,06,03,10,25,12.80
2010,06,03,10,26,12.70
2010,06,03,10,27,12.60
2010,06,03,10,28,12.50
2010,06,03,10,29,12.50
2010,06,03,10,30,12.40
2010,06,03,10,31,12.40
2010,06,03,10,32,12.30
2010,06,03,10,33,12.30
2010,06,03,10,34,12.30
2010,06,03,10,35,12.30
2010,06,03,10,36,12.20
2010,06,03,10,37,12.20
2010,06,03,10,38,12.20
2010,06,03,10,39,12.20
2010,06,03,10,40,12.20
2010,06,03,10,41,12.20
2010,06,03,10,42,12.30
2010,06,03,10,43,12.30
2010,06,03,10,44,12.40
2010,06,03,10,45,12.50
2010,06,03,10,46,12.60
2010,06,03,10,47,12.60
2010,06,03,10,48,12.70
2010,06,03,10,49,12.70
2010,06,03,10,50,12.80
2010,06,03,10,51,12.90
2010,06,03,10,52,12.90
2010,06,03,10,53,13.00
2010,06,03,10,54,13.00
2010,06,03,10,55,12.90
2010,06,03,10,56,12.90
2010,06,03,10,57,12.90
2010,06,03,10,58,12.90
2010,06,03,10,59,12.90
2010,06,03,11,00,12.90
2010,06,03,11,01,13.00
2010,06,03,11,02,13.10
2010,06,03,11,03,13.20
2010,06,03,11,04,13.30
2010,06,03,11,05,13.30
2010,06,03,11,06,13.40
2010,06,03,11,07,13.40
2010,06,03,11,08,13.50
2010,06,03,11,09,13.60
2010,06,03,11,10,13.60
2010,06,03,11,11,13.60
2010,06,03,11,12,13.50
2010,06,03,11,13,13.40
2010,06,03,11,14,13.20
2010,06,03,11,15,13.20
2010,06,03,11,16,13.20
2010,06,03,11,17,13.20
2010,06,03,11,18,13.20
2010,06,03,11,19,13.20
2010,06,03,11,20,13.20
2010,06,03,11,21,13.20
2010,06,03,11,22,13.20
2010,06,03,11,23,13.10
2010,06,03,11,24,13.00
2010,06,03,11,25,12.90
2010,06,03,11,26,12.90
2010,06,03,11,27,12.90
2010,06,03,11,28,12.90
2010,06,03,11,29,13.00
2010,06,03,11,30,13.10
2010,06,03,11,31,13.20
2010,06,03,11,32,13.30
2010,06,03,11,33,13.30
2010,06,03,11,34,13.40
2010,06,03,11,35,13.50
2010,06,03,11,36,13.50
2010,06,03,11,37,13.40
2010,06,03,11,38,13.40
2010,06,03,11,39,13.40
2010,06,03,11,40,13.40
2010,06,03,11,41,13.30
2010,06,03,11,42,13.20
2010,06,03,11,43,13.20
2010,06,03,11,44,13.20
2010,06,03,11,45,13.20
2010,06,03,11,46,13.20
2010,06,03,11,47,13.30
2010,06,03,11,48,13.40
2010,06,03,11,49,13.50
2010,06,03,11,50,13.50
2010,06,03,11,51,13.50
2010,06,03,11,52,13.40
2010,06,03,11,53,13.50
2010,06,03,11,54,13.60
2010,06,03,11,55,13.60
2010,06,03,11,56,13.60
2010,06,03,11,57,13.60
2010,06,03,11,58,13.70
2010,06,03,11,59,13.70
2010,06,03,12,00,13.60
2010,06,03,12,01,13.60
2010,06,03,12,02,13.50
2010,06,03,12,03,13.50
2010,06,03,12,04,13.40
2010,06,03,12,05,13.50
2010,06,03,12,06,13.60
2010,06,03,12,07,13.70
2010,06,03,12,08,13.80
2010,06,03,12,09,13.80
2010,06,03,12,10,13.90
2010,06,03,12,11,13.90
2010,06,03,12,12,14.00
2010,06,03,12,13,14.00
2010,06,03,12,14,14.00
2010,06,03,12,15,14.10
2010,06,03,12,16,14.20
2010,06,03,12,17,14.30
2010,06,03,12,18,14.50
2010,06,03,12,19,14.60
2010,06,03,12,20,14.70
2010,06,03,12,21,14.70
2010,06,03,12,22,14.80
2010,06,03,12,23,14.70
2010,06,03,12,24,14.60
2010,06,03,12,25,14.60
2010,06,03,12,26,14.50
2010,06,03,12,27,14.50
2010,06,03,12,28,14.50
2010,06,03,12,29,14.50
2010,06,03,12,30,14.50
2010,06,03,12,31,14.30
2010,06,03,12,32,14.30
2010,06,03,12,33,14.30
2010,06,03,12,34,14.20
2010,06,03,12,35,14.20
2010,06,03,12,36,14.20
2010,06,03,12,37,14.20
2010,06,03,12,38,14.30
2010,06,03,12,39,14.30
2010,06,03,12,40,14.30
2010,06,03,12,41,14.30
2010,06,03,12,42,14.30
2010,06,03,12,43,14.30
2010,06,03,12,44,14.20
2010,06,03,12,45,14.20
2010,06,03,12,46,14.10
2010,06,03,12,47,14.10
2010,06,03,12,48,14.00
2010,06,03,12,49,14.00
2010,06,03,12,50,13.90
2010,06,03,12,51,13.90
2010,06,03,12,52,13.90
2010,06,03,12,53,13.90
2010,06,03,12,54,13.80
2010,06,03,12,55,13.80
2010,06,03,12,56,13.70
2010,06,03,12,57,13.60
2010,06,03,12,58,13.50
2010,06,03,12,59,13.40
2010,06,03,13,00,13.30
2010,06,03,13,01,13.30
2010,06,03,13,02,13.20
2010,06,03,13,03,13.00
2010,06,03,13,04,12.90
2010,06,03,13,05,12.90
2010,06,03,13,06,12.80
2010,06,03,13,07,12.80
2010,06,03,13,08,12.80
2010,06,03,13,09,12.70
2010,06,03,13,10,12.70
2010,06,03,13,11,12.70
2010,06,03,13,12,12.70
2010,06,03,13,13,12.70
2010,06,03,13,14,12.80
2010,06,03,13,15,12.90
2010,06,03,13,16,13.00
2010,06,03,13,17,13.20
2010,06,03,13,18,13.30
2010,06,03,13,19,13.40
2010,06,03,13,20,13.60
2010,06,03,13,21,13.70
2010,06,03,13,22,13.80
2010,06,03,13,23,13.80
2010,06,03,13,24,13.80
2010,06,03,13,25,13.80
2010,06,03,13,26,13.70
2010,06,03,13,27,13.80
2010,06,03,13,28,13.70
2010,06,03,13,29,13.70
2010,06,03,13,30,13.70
2010,06,03,13,31,13.70
2010,06,03,13,32,13.70
2010,06,03,13,33,13.70
2010,06,03,13,34,13.60
2010,06,03,13,35,13.60
2010,06,03,13,36,13.60
2010,06,03,13,37,13.60
2010,06,03,13,38,13.60
2010,06,03,13,39,13.60
2010,06,03,13,40,13.60
2010,06,03,13,41,13.60
2010,06,03,13,42,13.70
2010,06,03,13,43,13.90
2010,06,03,13,44,14.10
2010,06,03,13,45,14.30
2010,06,03,13,46,14.40
2010,06,03,13,47,14.50
2010,06,03,13,48,14.60
2010,06,03,13,49,14.60
2010,06,03,13,50,14.60
2010,06,03,13,51,14.60
2010,06,03,13,52,14.60
2010,06,03,13,53,14.60
2010,06,03,13,54,14.60
2010,06,03,13,55,14.70
2010,06,03,13,56,14.80
2010,06,03,13,57,14.80
2010,06,03,13,58,14.90
2010,06,03,13,59,15.00
2010,06,03,14,00,15.00
2010,06,03,14,01,15.00
2010,06,03,14,02,15.00
2010,06,03,14,03,14.80
2010,06,03,14,04,14.70
2010,06,03,14,05,14.70
2010,06,03,14,06,14.60
2010,06,03,14,07,14.70
2010,06,03,14,08,14.70
2010,06,03,14,09,14.70
2010,06,03,14,10,14.70
2010,06,03,14,11,14.70
2010,06,03,14,12,14.70
2010,06,03,14,13,14.60
2010,06,03,14,14,14.60
2010,06,03,14,15,14.60
2010,06,03,14,16,14.70
2010,06,03,14,17,14.80
2010,06,03,14,18,15.00
2010,06,03,14,19,15.00
2010,06,03,14,20,15.00
2010,06,03,14,21,15.00
2010,06,03,14,22,15.00
2010,06,03,14,23,15.00
2010,06,03,14,24,15.20
2010,06,03,14,25,15.30
2010,06,03,14,26,15.30
2010,06,03,14,27,15.30
2010,06,03,14,28,15.30
2010,06,03,14,29,15.30
2010,06,03,14,30,15.10
2010,06,03,14,31,15.00
2010,06,03,14,32,15.00
2010,06,03,14,33,15.00
2010,06,03,14,34,15.00
2010,06,03,14,35,15.00
2010,06,03,14,36,15.00
2010,06,03,14,37,15.00
2010,06,03,14,38,15.00
2010,06,03,14,39,14.90
2010,06,03,14,40,14.80
2010,06,03,14,41,14.70
2010,06,03,14,42,14.60
2010,06,03,14,43,14.50
2010,06,03,14,44,14.40
2010,06,03,14,45,14.30
2010,06,03,14,46,14.30
2010,06,03,14,47,14.30
2010,06,03,14,48,14.40
2010,06,03,14,49,14.40
2010,06,03,14,50,14.40
2010,06,03,14,51,14.50
2010,06,03,14,52,14.60
2010,06,03,14,53,14.60
2010,06,03,14,54,14.70
2010,06,03,14,55,14.60
2010,06,03,14,56,14.60
2010,06,03,14,57,14.60
2010,06,03,14,58,14.70
2010,06,03,14,59,14.80
2010,06,03,15,00,15.00
2010,06,03,15,01,15.00
2010,06,03,15,02,15.10
2010,06,03,15,03,15.20
2010,06,03,15,04,15.20
2010,06,03,15,05,15.20
2010,06,03,15,06,15.30
2010,06,03,15,07,15.30
2010,06,03,15,08,15.40
2010,06,03,15,09,15.40
2010,06,03,15,10,15.40
2010,06,03,15,11,15.40
2010,06,03,15,12,15.40
2010,06,03,15,13,15.40
2010,06,03,15,14,15.30
2010,06,03,15,15,15.30
2010,06,03,15,16,15.20
2010,06,03,15,17,15.20
2010,06,03,15,18,15.30
2010,06,03,15,19,15.30
2010,06,03,15,20,15.30
2010,06,03,15,21,15.30
2010,06,03,15,22,15.30
2010,06,03,15,23,15.10
2010,06,03,15,24,15.00
2010,06,03,15,25,14.80
2010,06,03,15,26,14.60
2010,06,03,15,27,14.40
2010,06,03,15,28,14.30
2010,06,03,15,29,14.20
2010,06,03,15,30,14.20
2010,06,03,15,31,14.30
2010,06,03,15,32,14.30
2010,06,03,15,33,14.40
2010,06,03,15,34,14.40
2010,06,03,15,35,14.40
2010,06,03,15,36,14.40
2010,06,03,15,37,14.50
2010,06,03,15,38,14.50
2010,06,03,15,39,14.50
2010,06,03,15,40,14.40
2010,06,03,15,41,14.30
2010,06,03,15,42,14.30
2010,06,03,15,43,14.30
2010,06,03,15,44,14.20
2010,06,03,15,45,14.20
2010,06,03,15,46,14.20
2010,06,03,15,47,14.20
2010,06,03,15,48,14.20
2010,06,03,15,49,14.20
2010,06,03,15,50,14.30
2010,06,03,15,51,14.20
2010,06,03,15,52,14.20
2010,06,03,15,53,14.10
2010,06,03,15,54,14.10
2010,06,03,15,55,14.00
2010,06,03,15,56,14.00
2010,06,03,15,57,14.10
2010,06,03,15,58,14.10
2010,06,03,15,59,14.10
2010,06,03,16,00,14.00
2010,06,03,16,01,14.00
2010,06,03,16,02,14.00
2010,06,03,16,03,13.90
2010,06,03,16,04,13.90
2010,06,03,16,05,13.80
2010,06,03,16,06,13.80
2010,06,03,16,07,13.90
2010,06,03,16,08,13.90
2010,06,03,16,09,13.90
2010,06,03,16,10,13.90
2010,06,03,16,11,13.90
2010,06,03,16,12,13.80
2010,06,03,16,13,13.80
2010,06,03,16,14,13.80
2010,06,03,16,15,13.80
2010,06,03,16,16,13.80
2010,06,03,16,17,13.80
2010,06,03,16,18,13.80
2010,06,03,16,19,13.90
2010,06,03,16,20,13.90
2010,06,03,16,21,14.00
2010,06,03,16,22,14.10
2010,06,03,16,23,14.00
2010,06,03,16,24,14.10
2010,06,03,16,25,14.10
2010,06,03,16,26,14.10
2010,06,03,16,27,14.10
2010,06,03,16,28,14.10
2010,06,03,16,29,14.10
2010,06,03,16,30,14.10
2010,06,03,16,31,14.10
2010,06,03,16,32,14.10
2010,06,03,16,33,14.00
2010,06,03,16,34,14.00
2010,06,03,16,35,13.90
2010,06,03,16,36,13.90
2010,06,03,16,37,13.90
2010,06,03,16,38,13.90
2010,06,03,16,39,13.80
2010,06,03,16,40,13.80
2010,06,03,16,41,13.80
2010,06,03,16,42,13.80
2010,06,03,16,43,13.80
2010,06,03,16,44,13.80
2010,06,03,16,45,13.80
2010,06,03,16,46,13.80
2010,06,03,16,47,13.80
2010,06,03,16,48,13.80
2010,06,03,16,49,13.80
2010,06,03,16,50,13.80
2010,06,03,16,51,13.80
2010,06,03,16,52,13.80
2010,06,03,16,53,13.80
2010,06,03,16,54,13.80
2010,06,03,16,55,13.80
2010,06,03,16,56,13.90
2010,06,03,16,57,13.90
2010,06,03,16,58,13.90
2010,06,03,16,59,14.00
2010,06,03,17,00,14.00
2010,06,03,17,01,14.10
2010,06,03,17,02,14.10
2010,06,03,17,03,14.20
2010,06,03,17,04,14.20
2010,06,03,17,05,14.30
2010,06,03,17,06,14.30
2010,06,03,17,07,14.30
2010,06,03,17,08,14.30
2010,06,03,17,09,14.30
2010,06,03,17,10,14.30
2010,06,03,17,11,14.20
2010,06,03,17,12,14.20
2010,06,03,17,13,14.20
2010,06,03,17,14,14.20
2010,06,03,17,15,14.10
2010,06,03,17,16,14.10
2010,06,03,17,17,14.10
2010,06,03,17,18,14.10
2010,06,03,17,19,14.10
2010,06,03,17,20,14.10
2010,06,03,17,21,14.10
2010,06,03,17,22,14.20
2010,06,03,17,23,14.20
2010,06,03,17,24,14.10
2010,06,03,17,25,14.10
2010,06,03,17,26,14.10
2010,06,03,17,27,14.10
2010,06,03,17,28,14.20
2010,06,03,17,29,14.20
2010,06,03,17,30,14.30
2010,06,03,17,31,14.30
2010,06,03,17,32,14.40
2010,06,03,17,33,14.40
2010,06,03,17,34,14.30
2010,06,03,17,35,14.30
2010,06,03,17,36,14.30
2010,06,03,17,37,14.30
2010,06,03,17,38,14.20